This is the latest recevied weather packets stored in our database for station/object EB2EMZ-14. If no packets are shown the sender has not sent any weather packets the latest 10 day(s).
| Time | Temp. | Humidity | Pressure | Rain* | Wind** | Luminosity | Snow |
|---|---|---|---|---|---|---|---|
| 1778061011 | 16.67° C | 61% | 1012.5 hPa | 0 mm | - | 0 W/m² | - |
| 1778060710 | 16.67° C | 61% | 1012.6 hPa | 0 mm | - | 0 W/m² | - |
| 1778060411 | 16.67° C | 61% | 1012.5 hPa | 0 mm | - | 0 W/m² | - |
| 1778060110 | 16.67° C | 61% | 1012.6 hPa | 0 mm | - | 0 W/m² | - |
| 1778059810 | 16.67° C | 61% | 1012.7 hPa | 0 mm | - | 0 W/m² | - |
| 1778059509 | 16.67° C | 62% | 1012.5 hPa | 0 mm | - | 0 W/m² | - |
| 1778059210 | 16.11° C | 61% | 1012.5 hPa | 0 mm | - | 0 W/m² | - |
| 1778058909 | 16.11° C | 61% | 1012.5 hPa | 0 mm | - | 0 W/m² | - |
| 1778058611 | 16.67° C | 60% | 1012.5 hPa | 0 mm | - | 0 W/m² | - |
| 1778058313 | 16.67° C | 60% | 1012.4 hPa | 0 mm | - | 0 W/m² | - |
| 1778058009 | 17.22° C | 60% | 1012.4 hPa | 0 mm | - | 0 W/m² | - |
| 1778057710 | 17.22° C | 58% | 1012.4 hPa | 0 mm | - | 0 W/m² | - |
| 1778057411 | 17.78° C | 57% | 1012.5 hPa | 0 mm | - | 0 W/m² | - |
| 1778057109 | 18.33° C | 56% | 1012.4 hPa | 0 mm | - | 0 W/m² | - |
| 1778056810 | 18.89° C | 57% | 1012.4 hPa | 0 mm | - | 0 W/m² | - |
| 1778056510 | 18.89° C | 57% | 1012.5 hPa | 0 mm | - | 0 W/m² | - |
| 1778056209 | 18.89° C | 58% | 1012.4 hPa | 0 mm | - | 0 W/m² | - |
| 1778055910 | 18.33° C | 58% | 1012.5 hPa | 0 mm | - | 0 W/m² | - |
| 1778055610 | 18.89° C | 57% | 1012.4 hPa | 0 mm | - | 0 W/m² | - |
| 1778055310 | 19.44° C | 56% | 1012.4 hPa | 0 mm | - | 0 W/m² | - |
| 1778055009 | 20° C | 55% | 1012.4 hPa | 0 mm | - | 0 W/m² | - |
| 1778054711 | 20° C | 56% | 1012.4 hPa | 0 mm | - | 0 W/m² | - |
| 1778054409 | 20.56° C | 53% | 1012.5 hPa | 0 mm | - | 0 W/m² | - |
| 1778054110 | 20.56° C | 56% | 1012.5 hPa | 0 mm | - | 0 W/m² | - |
| 1778053810 | 20.56° C | 56% | 1012.2 hPa | 0 mm | - | 0 W/m² | - |
* Rain latest hour (hover to see other rain measurements)
** Current wind speed in m/s (hover to see current wind gust speed)